Skip Page Navigation
NASA JPL Caltech
NASA Logo - Jet Propulsion Laboratory + View the NASA Portal
+ Near-Earth Object (NEO) Program
Search JPL
JPL Home Earth Solar System Stars & Galaxies Technology
JPL Solar System Dynamics
BODIES ORBITS EPHEMERIDES TOOLS PHYSICAL DATA DISCOVERY FAQ SITE MAP
JPL Small-Body Database Browser
Search: [ help ]  
3708 (1974 FV1)
Classification: Jupiter Trojan          SPK-ID: 2003708
Ephemeris | Orbit Diagram | Orbital Elements | Physical Parameters | Discovery Circumstances ]

[ show orbit diagram ]
Orbital Elements at Epoch 2456800.5 (2014-May-23.0) TDB
Reference: JPL 8 (heliocentric ecliptic J2000)
 Element Value Uncertainty (1-sigma)   Units 
e .1593625583153771 9.3859e-08  
a 5.213991169751953 1.1367e-07 AU
q 4.383076197906496 4.9299e-07 AU
i 13.37367986563266 8.3263e-06 deg
node 291.1699573965196 4.6194e-05 deg
peri 57.7351041276264 5.6006e-05 deg
M 60.44703111002583 2.9304e-05 deg
tp 2456070.326044316437
(2012-May-22.82604432)
0.00034996 JED
period 4348.64408092466
11.91
0.0001422
3.893e-07
d
yr
n .08278442505311967 2.7071e-09 deg/d
Q 6.044906141597409 1.3178e-07 AU
  Orbit Determination Parameters
   # obs. used (total)      842  
   data-arc span      30423 days (83.29 yr)  
   first obs. used      1930-11-26  
   last obs. used      2014-03-13  
   planetary ephem.      DE431  
   SB-pert. ephem.      SB431-BIG16  
   condition code      0  
   fit RMS      .57521  
   data source      ORB  
   producer      Otto Matic  
   solution date      2014-Jun-09 17:54:23  

Additional Information
 Earth MOID = 3.39878 AU 
 T_jup = 2.921 
[ show covariance matrix ]

Ephemeris | Orbit Diagram | Orbital Elements | Physical Parameters | Discovery Circumstances ]

Physical Parameter Table
Parameter Symbol Value Units Sigma Reference Notes
absolute magnitude H 9.1 mag n/a MPO272654  
diameter diameter 79.59 km 4.5 IRAS-A-FPA-3-RDR-IMPS-V6.0 IRAS observations used: 5
rotation period rot_per 6.553 h n/a Asteroid Lightcurve DataBase (Rev. 2013-Sep-12) Published Reference List:
[Mottola, S.; Di Martino, M.; Erikson, A.; Gonano-Beurer, M.; et al. (2011) Astron. J. 141, A170.]
geometric albedo albedo 0.0531   0.007 IRAS-A-FPA-3-RDR-IMPS-V6.0 IRAS observations used: 5

3708 (1974 FV1)          Discovered 1974-Mar-21 by at Cerro El Roble
Reference: DISCOVERY.DBLast Updated: 2003-08-29

Alternate Designations
 1974 FV1 = 1930 XF = 1953 SG = 1965 TA = 1974 HN3 = 1975 NQ 
Ephemeris | Orbit Diagram | Orbital Elements | Physical Parameters | Discovery Circumstances ]
ABOUT SSD CREDITS/AWARDS PRIVACY/COPYRIGHT GLOSSARY LINKS
FirstGov 2014-Jul-25 09:03 UT
(server date/time)  
NASA Home Page
Site Manager:   Donald K. Yeomans
Webmaster  Alan B. Chamberlin